7L2IWN-13 Weather Reports


time (UTC)temp
C
wind
direction
speed
KPH
gust
KPH
rain 1hr
cm
rain 24hr
cm
rain mn
cm
humidity
%
barometer
mb
20260903124803 21 108 3.2 4.8 0.00 0.30 0.30 99 1010.7
20260903123604 21 349 8.0 11.3 0.00 0.30 0.30 99 1010.0
20260903122403 21 330 8.0 9.7 0.00 0.30 0.30 99 1010.5
20260903121202 21 175 8.0 9.7 0.00 0.30 0.30 99 1010.4
20260903120003 21 228 3.2 4.8 0.00 0.30 0.30 99 1010.5
20260903114801 21 114 0.0 1.6 0.00 0.30 0.30 99 1010.7
20260903113601 21 40 0.0 0.0 0.00 0.30 0.30 99 1011.0
20260903112403 21 305 3.2 4.8 0.00 0.30 0.30 99 1011.3
20260903111202 21 99 3.2 8.0 0.00 0.30 0.30 99 1011.4
20260903110002 21 65 4.8 4.8 0.03 0.30 0.30 99 1011.3
20260903104803 21 294 3.2 3.2 0.03 0.30 0.30 99 1010.9
20260903103604 21 181 0.0 0.0 0.03 0.30 0.30 99 1011.1
20260903102402 21 206 4.8 8.0 0.03 0.30 0.30 99 1011.1
20260903101202 21 300 1.6 3.2 0.03 0.30 0.30 99 1011.0
20260903100002 21 204 3.2 3.2 0.00 0.28 0.28 99 1010.4
20260903094801 21 277 3.2 4.8 0.00 0.28 0.28 99 1010.6
20260903093603 21 276 0.0 1.6 0.00 0.28 0.28 99 1010.7
20260903092403 21 298 4.8 8.0 0.00 0.28 0.28 99 1010.5
20260903091202 21 282 0.0 1.6 0.00 0.28 0.28 99 1010.7
20260903090003 21 185 3.2 4.8 0.00 0.28 0.28 99 1010.6
20260903084803 21 181 0.0 0.0 0.00 0.28 0.28 99 1011.1
20260903083602 21 180 3.2 3.2 0.00 0.28 0.28 99 1011.6
20260903082403 21 191 4.8 8.0 0.00 0.28 0.28 99 1011.6
20260903081203 21 28 3.2 4.8 0.05 0.28 0.28 99 1011.8
20260903080002 21 240 3.2 3.2 0.18 0.28 0.28 99 1012.3
20260903074802 21 241 4.8 8.0 0.20 0.28 0.28 99 1012.1
20260903073602 21 317 1.6 3.2 0.20 0.28 0.28 99 1011.8
20260903072402 21 346 3.2 8.0 0.18 0.25 0.25 99 1012.4
20260903071201 21 265 0.0 0.0 0.15 0.23 0.23 99 1012.7
20260903070001 21 131 3.2 8.0 0.03 0.10 0.10 99 1012.8
20260903064803 22 13 3.2 9.7 0.00 0.08 0.08 99 1012.6
20260903063603 21 140 0.0 0.0 0.00 0.08 0.08 99 1012.4
20260903062401 21 131 0.0 1.6 0.03 0.08 0.08 97 1012.9
20260903061202 22 102 8.0 12.9 0.03 0.08 0.08 97 1012.6
20260903060001 22 17 3.2 8.0 0.03 0.08 0.08 95 1012.8
20260903054802 22 48 8.0 11.3 0.03 0.08 0.08 98 1012.6
20260903053603 23 96 0.0 0.0 0.05 0.08 0.08 94 1012.5
20260903052403 23 119 4.8 4.8 0.03 0.05 0.05 95 1011.9
20260903051202 23 129 3.2 4.8 0.03 0.05 0.05 94 1012.3
20260903050004 23 121 3.2 8.0 0.03 0.05 0.05 86 1012.3
20260903044803 23 113 9.7 14.5 0.03 0.05 0.05 92 1011.7
20260903043601 24 109 3.2 4.8 0.03 0.03 0.03 99 1011.1
20260903042403 24 141 1.6 3.2 0.03 0.03 0.03 99 1010.9
20260903041201 25 153 1.6 3.2 0.03 0.03 0.03 99 1010.9
20260903040001 25 89 1.6 3.2 0.03 0.03 0.03 99 1011.1
20260903034803 25 111 1.6 3.2 0.03 0.03 0.03 99 1011.1
20260903033603 26 101 3.2 4.8 0.00 0.00 0.00 97 1011.4
20260903032403 26 46 0.0 1.6 0.00 0.00 0.00 93 1011.0
20260903031202 26 46 0.0 0.0 0.00 0.00 0.00 92 1011.1
20260903030002 26 46 0.0 1.6 0.00 0.00 0.00 93 1011.1
20260903024802 26 64 1.6 3.2 0.00 0.00 0.00 92 1010.9
20260903023603 26 100 0.0 4.8 0.00 0.00 0.00 93 1010.6
20260903022402 26 33 3.2 8.0 0.00 0.00 0.00 90 1010.6
20260903021202 26 35 4.8 8.0 0.00 0.00 0.00 91 1010.7
20260903020001 26 44 0.0 4.8 0.00 0.00 0.00 91 1010.7
20260903014803 26 26 1.6 1.6 0.00 0.00 0.00 91 1011.2
20260903013602 26 11 1.6 3.2 0.00 0.00 0.00 91 1010.9
20260903012402 26 27 1.6 3.2 0.00 0.00 0.00 92 1011.0
20260903011202 26 46 1.6 3.2 0.00 0.00 0.00 93 1011.1
20260903010002 25 337 3.2 4.8 0.00 0.00 0.00 95 1011.3
20260903004802 25 284 1.6 3.2 0.00 0.00 0.00 95 1011.5
20260903003602 25 342 0.0 0.0 0.00 0.00 0.00 97 1011.2
20260903002404 25 88 1.6 4.8 0.00 0.00 0.00 97 1010.7
20260903001203 25 351 0.0 0.0 0.00 0.00 0.00 97 1011.2
20260903000004 25 14 0.0 0.0 0.00 0.00 0.00 97 1011.3
20260902234805 24 77 0.0 1.6 0.00 0.00 0.00 98 1011.3
20260902233603 24 40 0.0 1.6 0.00 0.00 0.00 98 1011.5
20260902232403 24 38 1.6 3.2 0.00 0.00 0.00 99 1011.4
20260902231203 24 22 0.0 0.0 0.00 0.00 0.00 99 1011.3
20260902230004 24 32 1.6 1.6 0.00 0.00 0.00 99 1011.4
20260902224804 23 17 0.0 0.0 0.00 0.00 0.00 99 1011.3
20260902223604 23 7 0.0 0.0 0.00 0.00 0.00 99 1011.0
20260902222403 23 330 1.6 3.2 0.00 0.00 0.00 99 1011.0
20260902221204 23 246 1.6 3.2 0.00 0.00 0.00 99 1010.9
20260902220004 23 299 1.6 3.2 0.00 0.00 0.00 99 1010.9
20260902214803 23 304 0.0 0.0 0.00 0.00 0.00 99 1010.8
20260902213604 22 294 0.0 0.0 0.00 0.00 0.00 99 1010.8
20260902212403 22 266 0.0 0.0 0.00 0.00 0.00 99 1011.1
20260902211203 22 271 0.0 0.0 0.00 0.00 0.00 99 1011.1
20260902210004 22 272 0.0 0.0 0.00 0.00 0.00 99 1011.3
20260902204804 22 9 0.0 0.0 0.00 0.00 0.00 99 1011.1
20260902203602 22 307 3.2 3.2 0.00 0.00 0.00 99 1011.2
20260902202403 22 220 3.2 3.2 0.00 0.00 0.00 99 1011.2
20260902201203 22 311 1.6 3.2 0.00 0.00 0.00 99 1011.0
20260902200004 22 342 0.0 0.0 0.00 0.00 0.00 99 1011.0
20260902194802 22 342 0.0 0.0 0.00 0.00 0.00 99 1011.1
20260902193602 22 346 1.6 3.2 0.00 0.00 0.00 99 1011.7
20260902192404 22 288 0.0 0.0 0.00 0.00 0.00 99 1011.8
20260902191203 22 250 0.0 0.0 0.00 0.00 0.00 99 1012.0
20260902190003 23 296 1.6 3.2 0.00 0.00 0.00 99 1011.8
20260902184803 22 246 0.0 0.0 0.00 0.00 0.00 99 1011.9
20260902183602 23 295 1.6 3.2 0.00 0.00 0.00 99 1012.0
20260902182402 23 253 1.6 3.2 0.00 0.00 0.00 99 1011.9
20260902181203 23 343 0.0 0.0 0.00 0.00 0.00 99 1012.0
20260902180004 23 343 0.0 0.0 0.00 0.00 0.00 99 1012.0
20260902174802 23 343 0.0 0.0 0.00 0.00 0.00 99 1012.2
20260902173602 23 263 0.0 0.0 0.00 0.00 0.00 99 1012.0
20260902172403 23 263 0.0 1.6 0.00 0.00 0.00 99 1012.4
20260902171201 23 262 0.0 0.0 0.00 0.00 0.00 99 1012.6
20260902170004 23 262 1.6 3.2 0.00 0.00 0.00 99 1013.0
20260902164803 23 267 0.0 0.0 0.00 0.00 0.00 99 1012.9
20260902163603 23 267 0.0 0.0 0.00 0.00 0.00 99 1012.8
20260902162403 23 267 0.0 0.0 0.00 0.00 0.00 99 1012.9
20260902161203 23 267 1.6 1.6 0.00 0.00 0.00 99 1012.8
20260902160005 23 296 1.6 3.2 0.00 0.00 0.00 99 1012.7
20260902154802 23 237 3.2 3.2 0.00 0.00 0.00 99 1012.5
20260902153602 23 201 3.2 4.8 0.00 0.00 0.00 99 1012.6
20260902152404 23 329 0.0 0.0 0.00 0.00 0.00 99 1012.8
20260902151203 23 111 1.6 1.6 0.00 0.00 0.00 99 1012.7
20260902150003 23 158 0.0 1.6 0.00 0.00 0.00 99 1013.0
20260902144802 23 217 1.6 3.2 0.00 0.00 0.00 99 1012.9
20260902143603 23 234 0.0 0.0 0.00 0.00 0.00 99 1013.3
20260902142405 23 224 0.0 1.6 0.00 0.00 0.00 99 1013.3
20260902141202 23 229 0.0 0.0 0.00 0.00 0.00 99 1013.5
20260902140004 23 246 0.0 0.0 0.00 0.00 0.00 99 1013.3
20260902134803 23 215 1.6 3.2 0.00 0.00 0.00 99 1013.5
20260902133602 23 324 1.6 1.6 0.00 0.00 0.00 99 1013.4
20260902132403 24 209 0.0 0.0 0.00 0.00 0.00 99 1013.4
20260902131201 24 210 1.6 3.2 0.00 0.00 0.00 99 1013.6
20260902130003 24 176 1.6 3.2 0.00 0.00 0.00 99 1013.3